Date String (YYYY-MM-DD hh:mm:ss) UTC,Instrument flags,absolute air pressure of the measurement (hPa),sample flow rate (lpm),inlet stack bypass flow (lpm),air temperature of the measurement (°C),ambient temperature measured by the external sensor (°C),aerosol sample conditioner tube jacket temperature (°C),OPC LED temperature (°C),internal box temperature (°C),relative humidity of the measurement (%),span deviation,mass concentration of particles derived from Lorenz-Mie calculation of OPC scattering (μg/m³),mass concentration of particles derived from Lorenz-Mie calculation of OPC scattering (μg/m³),mass concentration of particles derived from Lorenz-Mie calculation of OPC scattering (μg/m³)
DateTimeUTC,F1_M11,P_M11,Q1_M11,Q2_M11,T1_M11,T2_M11,T3_M11,T4_M11,T5_M11,U1_M11,ZSPAN_M11,X0_M11,X2_M11,X1_M11
2023-07-14 02:00:00,SystemResetWarning,0829.2,5.00,000.00,028.6,026.1,000.0,036.9,030.2,29.9,0000.0,0015.91,0004.68,0003.76
2023-07-14 02:01:00,SystemResetWarning,0829.3,5.01,000.00,028.6,026.6,000.0,036.9,030.3,29.5,0000.0,0015.38,0004.65,0003.77
2023-07-14 02:02:00,SystemResetWarning,0829.3,4.99,000.00,028.7,027.0,000.0,037.0,030.4,30.4,0000.0,0013.24,0004.69,0003.78
2023-07-14 02:03:00,SystemResetWarning,0829.3,4.99,000.00,028.7,027.3,000.0,037.0,030.5,33.1,0000.0,0012.85,0004.71,0003.78
2023-07-14 02:04:00,SystemResetWarning,0829.3,4.99,000.00,028.8,027.3,000.0,037.0,030.5,30.8,0000.0,0012.40,0004.72,0003.79
2023-07-14 02:05:00,SystemResetWarning,0829.2,5.00,000.00,028.8,025.8,000.0,036.9,030.3,28.8,0000.0,0011.80,0004.71,0003.79
2023-07-14 02:06:00,SystemResetWarning,0829.2,5.00,000.00,028.7,024.7,000.0,036.8,030.1,28.2,0000.0,0011.41,0004.73,0003.80
2023-07-14 02:07:00,SystemResetWarning,0829.2,5.02,000.00,028.6,024.6,000.0,036.8,029.9,27.7,0000.0,0010.73,0004.78,0003.80
2023-07-14 02:08:00,SystemResetWarning,0829.2,5.00,000.00,028.5,025.0,000.0,036.9,029.9,28.4,0000.0,0010.91,0004.79,0003.80
2023-07-14 02:09:00,SystemResetWarning,0829.2,4.99,000.00,028.5,025.5,000.0,036.9,030.0,28.2,0000.0,0011.22,0004.82,0003.80
2023-07-14 02:10:00,SystemResetWarning,0829.3,5.00,000.00,028.6,026.0,000.0,036.9,030.1,27.5,0000.0,0011.88,0004.82,0003.80
2023-07-14 02:11:00,SystemResetWarning,0829.3,5.00,000.00,028.6,026.5,000.0,036.9,030.2,27.3,0000.0,0012.37,0004.82,0003.82
2023-07-14 02:12:00,SystemResetWarning,0829.4,5.01,000.00,028.6,026.9,000.0,037.0,030.3,27.1,0000.0,0012.53,0004.82,0003.82
2023-07-14 02:13:00,SystemResetWarning,0829.4,5.00,000.00,028.7,027.2,000.0,037.0,030.4,26.5,0000.0,0012.91,0004.75,0003.82
2023-07-14 02:14:00,SystemResetWarning,0829.3,5.00,000.00,028.7,027.5,000.0,037.0,030.5,26.3,0000.0,0012.94,0004.71,0003.82
2023-07-14 02:15:00,SystemResetWarning,0829.3,4.98,000.00,028.8,027.0,000.0,037.0,030.5,26.6,0000.0,0013.18,0004.68,0003.82
2023-07-14 02:16:00,SystemResetWarning,0829.4,5.00,000.00,028.8,025.6,000.0,036.9,030.3,26.8,0000.0,0013.28,0004.64,0003.83
2023-07-14 02:17:00,SystemResetWarning,0829.3,5.01,000.00,028.7,025.4,000.0,036.8,030.2,26.8,0000.0,0014.08,0004.64,0003.82
2023-07-14 02:18:00,SystemResetWarning,0829.3,5.00,000.00,028.7,025.7,000.0,036.9,030.1,26.6,0000.0,0015.04,0004.63,0003.83
2023-07-14 02:19:00,SystemResetWarning,0829.3,5.00,000.00,028.7,026.1,000.0,036.9,030.2,26.4,0000.0,0014.49,0004.65,0003.85
2023-07-14 02:20:00,SystemResetWarning,0829.3,5.00,000.00,028.7,026.5,000.0,037.0,030.3,26.4,0000.0,0013.72,0004.69,0003.88
2023-07-14 02:21:00,SystemResetWarning,0829.3,4.99,000.00,028.7,026.9,000.0,037.0,030.4,26.3,0000.0,0012.60,0004.71,0003.90
2023-07-14 02:22:00,SystemResetWarning,0829.4,5.00,000.00,028.8,027.2,000.0,037.0,030.5,26.3,0000.0,0012.17,0004.76,0003.91
2023-07-14 02:23:00,SystemResetWarning,0829.4,5.01,000.00,028.8,027.5,000.0,037.1,030.6,26.2,0000.0,0012.14,0004.80,0003.92
2023-07-14 02:24:00,SystemResetWarning,0829.4,5.00,000.00,028.9,027.1,000.0,037.1,030.6,26.1,0000.0,0012.72,0004.84,0003.94
2023-07-14 02:25:00,SystemResetWarning,0829.3,4.99,000.00,028.8,025.4,000.0,036.9,030.4,26.1,0000.0,0013.68,0004.87,0003.95
2023-07-14 02:26:00,SystemResetWarning,0829.4,5.02,000.00,028.7,024.5,000.0,036.9,030.1,26.3,0000.0,0013.55,0004.88,0003.98
2023-07-14 02:27:00,SystemResetWarning,0829.3,5.01,000.00,028.7,024.7,000.0,036.9,030.0,26.3,0000.0,0013.46,0004.90,0003.99
2023-07-14 02:28:00,SystemResetWarning,0829.3,5.00,000.00,028.6,025.1,000.0,036.9,030.0,26.4,0000.0,0013.23,0004.89,0004.01
2023-07-14 02:29:00,SystemResetWarning,0829.4,5.00,000.00,028.6,025.6,000.0,036.9,030.1,26.4,0000.0,0012.42,0004.91,0004.01
2023-07-14 02:30:00,SystemResetWarning,0829.3,5.00,000.00,028.6,026.1,000.0,037.0,030.2,26.1,0000.0,0013.23,0004.93,0004.01
2023-07-14 02:31:00,SystemResetWarning,0829.4,5.00,000.00,028.7,026.6,000.0,037.0,030.3,26.1,0000.0,0013.51,0004.90,0004.00
2023-07-14 02:32:00,SystemResetWarning,0829.4,5.00,000.00,028.7,026.9,000.0,037.0,030.4,26.0,0000.0,0014.52,0004.87,0003.99
2023-07-14 02:33:00,SystemResetWarning,0829.5,5.00,000.00,028.7,027.3,000.0,037.0,030.5,25.7,0000.0,0014.60,0004.85,0003.98
2023-07-14 02:34:00,SystemResetWarning,0829.6,5.00,000.00,028.8,027.5,000.0,037.1,030.6,25.6,0000.0,0014.42,0004.79,0003.97
2023-07-14 02:35:00,SystemResetWarning,0829.6,5.00,000.00,028.9,027.4,000.0,037.1,030.6,25.8,0000.0,0013.61,0004.80,0003.97
2023-07-14 02:36:00,SystemResetWarning,0829.6,4.99,000.00,028.8,025.9,000.0,037.0,030.4,25.9,0000.0,0012.37,0004.85,0003.98
2023-07-14 02:37:00,SystemResetWarning,0829.7,5.01,000.00,028.8,025.4,000.0,036.9,030.2,25.7,0000.0,0012.51,0004.90,0003.98
2023-07-14 02:38:00,SystemResetWarning,0829.7,5.00,000.00,028.7,025.6,000.0,036.9,030.1,25.6,0000.0,0013.45,0004.91,0003.98
2023-07-14 02:39:00,SystemResetWarning,0829.7,4.99,000.00,028.7,026.0,000.0,037.0,030.2,25.4,0000.0,0013.07,0004.93,0003.97
2023-07-14 02:40:00,SystemResetWarning,0829.7,5.01,000.00,028.7,026.4,000.0,037.0,030.3,25.6,0000.0,0013.45,0004.92,0003.97
2023-07-14 02:41:00,SystemResetWarning,0829.7,5.01,000.00,028.7,026.8,000.0,037.1,030.4,25.6,0000.0,0013.52,0004.88,0003.97
2023-07-14 02:42:00,SystemResetWarning,0829.7,4.98,000.00,028.8,027.1,000.0,037.1,030.5,25.6,0000.0,0013.17,0004.88,0003.96
2023-07-14 02:43:00,SystemResetWarning,0829.7,5.00,000.00,028.8,027.4,000.0,037.1,030.6,25.7,0000.0,0012.02,0004.87,0003.97
2023-07-14 02:44:00,SystemResetWarning,0829.7,5.01,000.00,028.9,027.3,000.0,037.1,030.6,25.6,0000.0,0011.90,0004.90,0003.98
2023-07-14 02:45:00,SystemResetWarning,0829.6,4.98,000.00,028.9,025.7,000.0,037.0,030.4,25.6,0000.0,0012.53,0004.92,0003.99
2023-07-14 02:46:00,SystemResetWarning,0829.5,5.00,000.00,028.8,024.5,000.0,036.9,030.2,25.7,0000.0,0012.96,0004.90,0003.98
2023-07-14 02:47:00,SystemResetWarning,0829.5,5.01,000.00,028.7,024.5,000.0,036.9,030.0,25.9,0000.0,0013.22,0004.88,0003.98
2023-07-14 02:48:00,SystemResetWarning,0829.5,4.99,000.00,028.6,024.9,000.0,036.9,029.9,26.0,0000.0,0013.46,0004.84,0003.97
2023-07-14 02:49:00,SystemResetWarning,0829.5,4.99,000.00,028.6,025.4,000.0,037.0,030.0,26.1,0000.0,0013.20,0004.82,0003.96
2023-07-14 02:50:00,SystemResetWarning,0829.6,5.02,000.00,028.6,025.9,000.0,037.0,030.1,26.1,0000.0,0012.90,0004.80,0003.95
2023-07-14 02:51:00,SystemResetWarning,0829.6,5.01,000.00,028.6,026.4,000.0,037.0,030.2,26.1,0000.0,0012.72,0004.79,0003.95
2023-07-14 02:52:00,SystemResetWarning,0829.6,5.00,000.00,028.7,026.8,000.0,037.0,030.3,26.1,0000.0,0011.92,0004.81,0003.93
2023-07-14 02:53:00,SystemResetWarning,0829.7,5.00,000.00,028.7,027.1,000.0,037.1,030.4,26.0,0000.0,0011.64,0004.78,0003.92
2023-07-14 02:54:00,SystemResetWarning,0829.7,4.99,000.00,028.8,027.4,000.0,037.1,030.5,26.0,0000.0,0011.92,0004.78,0003.91
2023-07-14 02:55:00,SystemResetWarning,0829.7,4.99,000.00,028.8,027.6,000.0,037.1,030.6,25.9,0000.0,0012.46,0004.76,0003.89
2023-07-14 02:56:00,SystemResetWarning,0829.7,5.00,000.00,028.9,027.7,000.0,037.1,030.7,26.1,0000.0,0012.84,0004.74,0003.87
2023-07-14 02:57:00,SystemResetWarning,0829.7,4.99,000.00,028.9,026.3,000.0,037.1,030.5,26.1,0000.0,0013.02,0004.72,0003.85
2023-07-14 02:58:00,SystemResetWarning,0829.7,5.00,000.00,028.8,024.7,000.0,036.9,030.2,26.3,0000.0,0012.71,0004.69,0003.85
2023-07-14 02:59:00,SystemResetWarning,0829.7,5.00,000.00,028.7,024.4,000.0,036.9,030.0,26.4,0000.0,0012.98,0004.70,0003.85
